Track STARLINK-1849 now! 10-day predictions STARLINK-1849 is classified as:
1 47137U 20088R 21021.83334491 -.00099054 00000-0 -10883-2 0 9992 2 47137 53.0555 69.6637 0001288 37.9804 171.5092 15.62773996 9845